This is the latest recevied weather packets stored in our database for station/object CX2SA-13. If no packets are shown the sender has not sent any weather packets the latest 10 day(s).
| Time | Temp. | Humidity | Pressure | Rain* | Wind** | Luminosity | Snow |
|---|---|---|---|---|---|---|---|
| 1777715085 | 14.44° C | 90% | 1016.5 hPa | 0 mm | - | - | - |
| 1777714184 | 15° C | 90% | 1015.9 hPa | 0 mm | - | - | - |
| 1777713285 | 15.56° C | 92% | 1015.9 hPa | 0 mm | - | - | - |
| 1777712386 | 15.56° C | 95% | 1015.9 hPa | 0 mm | - | - | - |
| 1777711484 | 16.11° C | 95% | 1015.5 hPa | 0 mm | - | - | - |
| 1777710585 | 16.11° C | 95% | 1014.9 hPa | 0 mm | - | - | - |
| 1777709684 | 16.11° C | 95% | 1014.2 hPa | 0 mm | - | - | - |
| 1777708784 | 16.67° C | 96% | 1014.2 hPa | 0 mm | - | - | - |
| 1777707885 | 16.67° C | 97% | 1013.8 hPa | 0 mm | - | - | - |
| 1777706984 | 16.67° C | 97% | 1013.5 hPa | 0 mm | - | - | - |
| 1777706085 | 16.67° C | 98% | 1013.5 hPa | 0 mm | - | - | - |
| 1777705185 | 16.67° C | 99% | 1013.2 hPa | 0 mm | - | - | - |
| 1777704284 | 16.11° C | 99% | 1013.2 hPa | 0 mm | - | - | - |
| 1777703385 | 16.11° C | 99% | 1013.2 hPa | 0 mm | - | - | - |
| 1777702486 | 16.67° C | 99% | 1013.2 hPa | 0 mm | - | - | - |
| 1777701584 | 16.67° C | 99% | 1012.8 hPa | 0 mm | - | - | - |
| 1777700685 | 16.67° C | 99% | 1012.8 hPa | 0 mm | - | - | - |
| 1777699784 | 16.67° C | 99% | 1012.8 hPa | 0 mm | - | - | - |
| 1777698884 | 16.67° C | 99% | 1012.8 hPa | 0 mm | - | - | - |
| 1777697985 | 16.67° C | 99% | 1012.1 hPa | 0 mm | - | - | - |
| 1777697084 | 17.22° C | 99% | 1012.1 hPa | 0 mm | - | - | - |
| 1777696184 | 17.22° C | 99% | 1012.1 hPa | 0 mm | - | - | - |
| 1777695285 | 17.22° C | 99% | 1011.8 hPa | 0 mm | - | - | - |
| 1777694384 | 17.22° C | 99% | 1011.5 hPa | 0 mm | - | - | - |
| 1777693485 | 17.22° C | 99% | 1011.5 hPa | 0 mm | - | - | - |
* Rain since midnight (hover to see other rain measurements)
** Current wind speed in m/s (hover to see current wind gust speed)